Year,Month,Day,Hour,Minute,Value (Times are PST for temperature in C)
2007,07,22,07,16,15.00
2007,07,22,07,17,15.00
2007,07,22,07,18,15.00
2007,07,22,07,19,15.00
2007,07,22,07,20,15.00
2007,07,22,07,21,15.00
2007,07,22,07,22,15.00
2007,07,22,07,23,15.00
2007,07,22,07,24,15.00
2007,07,22,07,25,15.00
2007,07,22,07,26,15.00
2007,07,22,07,27,15.00
2007,07,22,07,28,15.00
2007,07,22,07,29,15.00
2007,07,22,07,30,15.00
2007,07,22,07,31,15.00
2007,07,22,07,32,15.00
2007,07,22,07,33,15.00
2007,07,22,07,34,15.00
2007,07,22,07,35,15.00
2007,07,22,07,36,15.10
2007,07,22,07,37,15.10
2007,07,22,07,38,15.10
2007,07,22,07,39,15.10
2007,07,22,07,40,15.10
2007,07,22,07,41,15.20
2007,07,22,07,42,15.20
2007,07,22,07,43,15.20
2007,07,22,07,44,15.20
2007,07,22,07,45,15.20
2007,07,22,07,46,15.20
2007,07,22,07,47,15.20
2007,07,22,07,48,15.30
2007,07,22,07,49,15.30
2007,07,22,07,50,15.30
2007,07,22,07,51,15.30
2007,07,22,07,52,15.30
2007,07,22,07,53,15.30
2007,07,22,07,54,15.30
2007,07,22,07,55,15.30
2007,07,22,07,56,15.30
2007,07,22,07,57,15.40
2007,07,22,07,58,15.40
2007,07,22,07,59,15.40
2007,07,22,08,00,15.40
2007,07,22,08,01,15.40
2007,07,22,08,02,15.40
2007,07,22,08,03,15.40
2007,07,22,08,04,15.50
2007,07,22,08,05,15.50
2007,07,22,08,06,15.50
2007,07,22,08,07,15.50
2007,07,22,08,08,15.50
2007,07,22,08,09,15.50
2007,07,22,08,10,15.60
2007,07,22,08,11,15.60
2007,07,22,08,12,15.60
2007,07,22,08,13,15.60
2007,07,22,08,14,15.60
2007,07,22,08,15,15.70
2007,07,22,08,16,15.70
2007,07,22,08,17,15.70
2007,07,22,08,18,15.70
2007,07,22,08,19,15.70
2007,07,22,08,20,15.70
2007,07,22,08,21,15.70
2007,07,22,08,22,15.70
2007,07,22,08,23,15.80
2007,07,22,08,24,15.80
2007,07,22,08,25,15.80
2007,07,22,08,26,15.80
2007,07,22,08,27,15.80
2007,07,22,08,28,15.80
2007,07,22,08,29,15.80
2007,07,22,08,30,15.80
2007,07,22,08,31,15.80
2007,07,22,08,32,15.80
2007,07,22,08,33,15.80
2007,07,22,08,34,15.80
2007,07,22,08,35,15.80
2007,07,22,08,36,15.80
2007,07,22,08,37,15.90
2007,07,22,08,38,15.90
2007,07,22,08,39,15.90
2007,07,22,08,40,15.90
2007,07,22,08,41,15.90
2007,07,22,08,42,15.90
2007,07,22,08,43,15.90
2007,07,22,08,44,16.00
2007,07,22,08,45,16.00
2007,07,22,08,46,16.00
2007,07,22,08,47,16.00
2007,07,22,08,48,16.00
2007,07,22,08,49,16.00
2007,07,22,08,50,16.00
2007,07,22,08,51,15.90
2007,07,22,08,52,16.00
2007,07,22,08,53,16.00
2007,07,22,08,54,16.00
2007,07,22,08,55,16.00
2007,07,22,08,56,16.00
2007,07,22,08,57,16.10
2007,07,22,08,58,16.10
2007,07,22,08,59,16.00
2007,07,22,09,00,16.10
2007,07,22,09,01,16.10
2007,07,22,09,02,16.10
2007,07,22,09,03,16.10
2007,07,22,09,04,16.10
2007,07,22,09,05,16.10
2007,07,22,09,06,16.10
2007,07,22,09,07,16.10
2007,07,22,09,08,16.10
2007,07,22,09,09,16.10
2007,07,22,09,10,16.10
2007,07,22,09,11,16.10
2007,07,22,09,12,16.10
2007,07,22,09,13,16.10
2007,07,22,09,14,16.10
2007,07,22,09,15,16.10
2007,07,22,09,16,16.10
2007,07,22,09,17,16.10
2007,07,22,09,18,16.20
2007,07,22,09,19,16.20
2007,07,22,09,20,16.20
2007,07,22,09,21,16.20
2007,07,22,09,22,16.20
2007,07,22,09,23,16.20
2007,07,22,09,24,16.20
2007,07,22,09,25,16.20
2007,07,22,09,26,16.20
2007,07,22,09,27,16.20
2007,07,22,09,28,16.30
2007,07,22,09,29,16.30
2007,07,22,09,30,16.30
2007,07,22,09,31,16.30
2007,07,22,09,32,16.30
2007,07,22,09,33,16.30
2007,07,22,09,34,16.30
2007,07,22,09,35,16.40
2007,07,22,09,36,16.40
2007,07,22,09,37,16.40
2007,07,22,09,38,16.40
2007,07,22,09,39,16.40
2007,07,22,09,40,16.40
2007,07,22,09,41,16.40
2007,07,22,09,42,16.40
2007,07,22,09,43,16.40
2007,07,22,09,44,16.40
2007,07,22,09,45,16.40
2007,07,22,09,46,16.40
2007,07,22,09,47,16.40
2007,07,22,09,48,16.40
2007,07,22,09,49,16.50
2007,07,22,09,50,16.50
2007,07,22,09,51,16.50
2007,07,22,09,52,16.60
2007,07,22,09,53,16.60
2007,07,22,09,54,16.60
2007,07,22,09,55,16.50
2007,07,22,09,56,16.50
2007,07,22,09,57,16.50
2007,07,22,09,58,16.50
2007,07,22,09,59,16.50
2007,07,22,10,00,16.60
2007,07,22,10,01,16.60
2007,07,22,10,02,16.60
2007,07,22,10,03,16.60
2007,07,22,10,04,16.60
2007,07,22,10,05,16.70
2007,07,22,10,06,16.70
2007,07,22,10,07,16.70
2007,07,22,10,08,16.70
2007,07,22,10,09,16.70
2007,07,22,10,10,16.70
2007,07,22,10,11,16.80
2007,07,22,10,12,16.80
2007,07,22,10,13,16.80
2007,07,22,10,14,16.80
2007,07,22,10,15,16.80
2007,07,22,10,16,16.80
2007,07,22,10,17,16.90
2007,07,22,10,18,16.90
2007,07,22,10,19,16.90
2007,07,22,10,20,16.90
2007,07,22,10,21,17.00
2007,07,22,10,22,17.00
2007,07,22,10,23,17.00
2007,07,22,10,24,17.00
2007,07,22,10,25,17.10
2007,07,22,10,26,17.10
2007,07,22,10,27,17.10
2007,07,22,10,28,17.10
2007,07,22,10,29,17.10
2007,07,22,10,30,17.10
2007,07,22,10,31,17.20
2007,07,22,10,32,17.20
2007,07,22,10,33,17.20
2007,07,22,10,34,17.30
2007,07,22,10,35,17.30
2007,07,22,10,36,17.30
2007,07,22,10,37,17.40
2007,07,22,10,38,17.40
2007,07,22,10,39,17.40
2007,07,22,10,40,17.40
2007,07,22,10,41,17.40
2007,07,22,10,42,17.40
2007,07,22,10,43,17.40
2007,07,22,10,44,17.40
2007,07,22,10,45,17.40
2007,07,22,10,46,17.40
2007,07,22,10,47,17.40
2007,07,22,10,48,17.40
2007,07,22,10,49,17.40
2007,07,22,10,50,17.40
2007,07,22,10,51,17.40
2007,07,22,10,52,17.40
2007,07,22,10,53,17.40
2007,07,22,10,54,17.40
2007,07,22,10,55,17.40
2007,07,22,10,56,17.40
2007,07,22,10,57,17.40
2007,07,22,10,58,17.40
2007,07,22,10,59,17.40
2007,07,22,11,00,17.50
2007,07,22,11,01,17.50
2007,07,22,11,02,17.40
2007,07,22,11,03,17.50
2007,07,22,11,04,17.50
2007,07,22,11,05,17.60
2007,07,22,11,06,17.60
2007,07,22,11,07,17.60
2007,07,22,11,08,17.60
2007,07,22,11,09,17.60
2007,07,22,11,10,17.70
2007,07,22,11,11,17.70
2007,07,22,11,12,17.70
2007,07,22,11,13,17.80
2007,07,22,11,14,17.80
2007,07,22,11,15,17.80
2007,07,22,11,16,17.90
2007,07,22,11,17,17.90
2007,07,22,11,18,17.90
2007,07,22,11,19,18.00
2007,07,22,11,20,18.00
2007,07,22,11,21,18.10
2007,07,22,11,22,18.10
2007,07,22,11,23,18.10
2007,07,22,11,24,18.10
2007,07,22,11,25,18.10
2007,07,22,11,26,18.10
2007,07,22,11,27,18.10
2007,07,22,11,28,18.10
2007,07,22,11,29,18.10
2007,07,22,11,30,18.10
2007,07,22,11,31,18.10
2007,07,22,11,32,18.20
2007,07,22,11,33,18.20
2007,07,22,11,34,18.20
2007,07,22,11,35,18.20
2007,07,22,11,36,18.30
2007,07,22,11,37,18.30
2007,07,22,11,38,18.30
2007,07,22,11,39,18.30
2007,07,22,11,40,18.40
2007,07,22,11,41,18.40
2007,07,22,11,42,18.40
2007,07,22,11,43,18.40
2007,07,22,11,44,18.50
2007,07,22,11,45,18.50
2007,07,22,11,46,18.50
2007,07,22,11,47,18.50
2007,07,22,11,48,18.60
2007,07,22,11,49,18.50
2007,07,22,11,50,18.60
2007,07,22,11,51,18.60
2007,07,22,11,52,18.60
2007,07,22,11,53,18.60
2007,07,22,11,54,18.70
2007,07,22,11,55,18.70
2007,07,22,11,56,18.70
2007,07,22,11,57,18.70
2007,07,22,11,58,18.70
2007,07,22,11,59,18.70
2007,07,22,12,00,18.70
2007,07,22,12,01,18.70
2007,07,22,12,02,18.70
2007,07,22,12,03,18.70
2007,07,22,12,04,18.70
2007,07,22,12,05,18.70
2007,07,22,12,06,18.70
2007,07,22,12,07,18.70
2007,07,22,12,08,18.70
2007,07,22,12,09,18.80
2007,07,22,12,10,18.80
2007,07,22,12,11,18.90
2007,07,22,12,12,18.90
2007,07,22,12,13,19.00
2007,07,22,12,14,19.00
2007,07,22,12,15,19.10
2007,07,22,12,16,19.10
2007,07,22,12,17,19.10
2007,07,22,12,18,19.00
2007,07,22,12,19,19.00
2007,07,22,12,20,19.00
2007,07,22,12,21,19.00
2007,07,22,12,22,19.00
2007,07,22,12,23,19.10
2007,07,22,12,24,19.10
2007,07,22,12,25,19.10
2007,07,22,12,26,19.10
2007,07,22,12,27,19.10
2007,07,22,12,28,19.10
2007,07,22,12,29,19.10
2007,07,22,12,30,19.20
2007,07,22,12,31,19.20
2007,07,22,12,32,19.30
2007,07,22,12,33,19.30
2007,07,22,12,34,19.30
2007,07,22,12,35,19.40
2007,07,22,12,36,19.40
2007,07,22,12,37,19.50
2007,07,22,12,38,19.60
2007,07,22,12,39,19.60
2007,07,22,12,40,19.60
2007,07,22,12,41,19.60
2007,07,22,12,42,19.60
2007,07,22,12,43,19.50
2007,07,22,12,44,19.50
2007,07,22,12,45,19.50
2007,07,22,12,46,19.50
2007,07,22,12,47,19.60
2007,07,22,12,48,19.60
2007,07,22,12,49,19.60
2007,07,22,12,50,19.60
2007,07,22,12,51,19.70
2007,07,22,12,52,19.70
2007,07,22,12,53,19.70
2007,07,22,12,54,19.70
2007,07,22,12,55,19.70
2007,07,22,12,56,19.70
2007,07,22,12,57,19.70
2007,07,22,12,58,19.70
2007,07,22,12,59,19.60
2007,07,22,13,00,19.70
2007,07,22,13,01,19.60
2007,07,22,13,02,19.60
2007,07,22,13,03,19.50
2007,07,22,13,04,19.50
2007,07,22,13,05,19.50
2007,07,22,13,06,19.60
2007,07,22,13,07,19.60
2007,07,22,13,08,19.60
2007,07,22,13,09,19.60
2007,07,22,13,10,19.60
2007,07,22,13,11,19.60
2007,07,22,13,12,19.60
2007,07,22,13,13,19.60
2007,07,22,13,14,19.60
2007,07,22,13,15,19.60
2007,07,22,13,16,19.60
2007,07,22,13,17,19.70
2007,07,22,13,18,19.60
2007,07,22,13,19,19.60
2007,07,22,13,20,19.50
2007,07,22,13,21,19.50
2007,07,22,13,22,19.40
2007,07,22,13,23,19.40
2007,07,22,13,24,19.30
2007,07,22,13,25,19.30
2007,07,22,13,26,19.30
2007,07,22,13,27,19.30
2007,07,22,13,28,19.30
2007,07,22,13,29,19.30
2007,07,22,13,30,19.30
2007,07,22,13,31,19.20
2007,07,22,13,32,19.20
2007,07,22,13,33,19.20
2007,07,22,13,34,19.20
2007,07,22,13,35,19.10
2007,07,22,13,36,19.10
2007,07,22,13,37,19.00
2007,07,22,13,38,19.10
2007,07,22,13,39,19.10
2007,07,22,13,40,19.10
2007,07,22,13,41,19.10
2007,07,22,13,42,19.10
2007,07,22,13,43,19.10
2007,07,22,13,44,19.10
2007,07,22,13,45,19.10
2007,07,22,13,46,19.10
2007,07,22,13,47,19.10
2007,07,22,13,48,19.00
2007,07,22,13,49,19.00
2007,07,22,13,50,19.00
2007,07,22,13,51,19.10
2007,07,22,13,52,19.10
2007,07,22,13,53,19.20
2007,07,22,13,54,19.20
2007,07,22,13,55,19.20
2007,07,22,13,56,19.30
2007,07,22,13,57,19.30
2007,07,22,13,58,19.30
2007,07,22,13,59,19.40
2007,07,22,14,00,19.40
2007,07,22,14,01,19.40
2007,07,22,14,02,19.40
2007,07,22,14,03,19.50
2007,07,22,14,04,19.50
2007,07,22,14,05,19.50
2007,07,22,14,06,19.60
2007,07,22,14,07,19.60
2007,07,22,14,08,19.60
2007,07,22,14,09,19.60
2007,07,22,14,10,19.60
2007,07,22,14,11,19.60
2007,07,22,14,12,19.60
2007,07,22,14,13,19.70
2007,07,22,14,14,19.70
2007,07,22,14,15,19.70
2007,07,22,14,16,19.70
2007,07,22,14,17,19.70
2007,07,22,14,18,19.80
2007,07,22,14,19,19.80
2007,07,22,14,20,19.80
2007,07,22,14,21,19.70
2007,07,22,14,22,19.70
2007,07,22,14,23,19.70
2007,07,22,14,24,19.60
2007,07,22,14,25,19.50
2007,07,22,14,26,19.40
2007,07,22,14,27,19.40
2007,07,22,14,28,19.30
2007,07,22,14,29,19.30
2007,07,22,14,30,19.30
2007,07,22,14,31,19.20
2007,07,22,14,32,19.20
2007,07,22,14,33,19.20
2007,07,22,14,34,19.20
2007,07,22,14,35,19.10
2007,07,22,14,36,19.10
2007,07,22,14,37,19.10
2007,07,22,14,38,19.10
2007,07,22,14,39,19.00
2007,07,22,14,40,19.00
2007,07,22,14,41,19.00
2007,07,22,14,42,19.00
2007,07,22,14,43,19.00
2007,07,22,14,44,19.00
2007,07,22,14,45,19.00
2007,07,22,14,46,19.00
2007,07,22,14,47,18.90
2007,07,22,14,48,18.90
2007,07,22,14,49,18.80
2007,07,22,14,50,18.80
2007,07,22,14,51,18.80
2007,07,22,14,52,18.70
2007,07,22,14,53,18.70
2007,07,22,14,54,18.60
2007,07,22,14,55,18.60
2007,07,22,14,56,18.60
2007,07,22,14,57,18.60
2007,07,22,14,58,18.60
2007,07,22,14,59,18.60
2007,07,22,15,00,18.60
2007,07,22,15,01,18.60
2007,07,22,15,02,18.60
2007,07,22,15,03,18.60
2007,07,22,15,04,18.60
2007,07,22,15,05,18.60
2007,07,22,15,06,18.60
2007,07,22,15,07,18.50
2007,07,22,15,08,18.50
2007,07,22,15,09,18.50
2007,07,22,15,10,18.40
2007,07,22,15,11,18.40
2007,07,22,15,12,18.40
2007,07,22,15,13,18.40
2007,07,22,15,14,18.40
2007,07,22,15,15,18.40
2007,07,22,15,16,18.40
2007,07,22,15,17,18.40
2007,07,22,15,18,18.50
2007,07,22,15,19,18.50
2007,07,22,15,20,18.50
2007,07,22,15,21,18.50
2007,07,22,15,22,18.50
2007,07,22,15,23,18.40
2007,07,22,15,24,18.40
2007,07,22,15,25,18.40
2007,07,22,15,26,18.40
2007,07,22,15,27,18.40
2007,07,22,15,28,18.40
2007,07,22,15,29,18.40
2007,07,22,15,30,18.40
2007,07,22,15,31,18.40
2007,07,22,15,32,18.30
2007,07,22,15,33,18.30
2007,07,22,15,34,18.30
2007,07,22,15,35,18.30
2007,07,22,15,36,18.30
2007,07,22,15,37,18.30
2007,07,22,15,38,18.30
2007,07,22,15,39,18.30
2007,07,22,15,40,18.30
2007,07,22,15,41,18.30
2007,07,22,15,42,18.40
2007,07,22,15,43,18.40
2007,07,22,15,44,18.40
2007,07,22,15,45,18.40
2007,07,22,15,46,18.40
2007,07,22,15,47,18.40
2007,07,22,15,48,18.40
2007,07,22,15,49,18.50
2007,07,22,15,50,18.50
2007,07,22,15,51,18.50
2007,07,22,15,52,18.50
2007,07,22,15,53,18.60
2007,07,22,15,54,18.60
2007,07,22,15,55,18.60
2007,07,22,15,56,18.50
2007,07,22,15,57,18.50
2007,07,22,15,58,18.60
2007,07,22,15,59,18.60
2007,07,22,16,00,18.60
2007,07,22,16,01,18.60
2007,07,22,16,02,18.50
2007,07,22,16,03,18.50
2007,07,22,16,04,18.50
2007,07,22,16,05,18.60
2007,07,22,16,06,18.60
2007,07,22,16,07,18.60
2007,07,22,16,08,18.50
2007,07,22,16,09,18.50
2007,07,22,16,10,18.50
2007,07,22,16,11,18.50
2007,07,22,16,12,18.50
2007,07,22,16,13,18.50
2007,07,22,16,14,18.60
2007,07,22,16,15,18.60
2007,07,22,16,16,18.60
2007,07,22,16,17,18.60
2007,07,22,16,18,18.60
2007,07,22,16,19,18.60
2007,07,22,16,20,18.60
2007,07,22,16,21,18.60
2007,07,22,16,22,18.60
2007,07,22,16,23,18.60
2007,07,22,16,24,18.60
2007,07,22,16,25,18.70
2007,07,22,16,26,18.70
2007,07,22,16,27,18.70
2007,07,22,16,28,18.70
2007,07,22,16,29,18.70
2007,07,22,16,30,18.60
2007,07,22,16,31,18.60
2007,07,22,16,32,18.60
2007,07,22,16,33,18.60
2007,07,22,16,34,18.60
2007,07,22,16,35,18.60
2007,07,22,16,36,18.50
2007,07,22,16,37,18.50
2007,07,22,16,38,18.50
2007,07,22,16,39,18.40
2007,07,22,16,40,18.40
2007,07,22,16,41,18.40
2007,07,22,16,42,18.40
2007,07,22,16,43,18.50
2007,07,22,16,44,18.50
2007,07,22,16,45,18.50
2007,07,22,16,46,18.50
2007,07,22,16,47,18.50
2007,07,22,16,48,18.50
2007,07,22,16,49,18.50
2007,07,22,16,50,18.50
2007,07,22,16,51,18.50
2007,07,22,16,52,18.50
2007,07,22,16,53,18.50
2007,07,22,16,54,18.50
2007,07,22,16,55,18.50
2007,07,22,16,56,18.50
2007,07,22,16,57,18.50
2007,07,22,16,58,18.60
2007,07,22,16,59,18.60
2007,07,22,17,00,18.60
2007,07,22,17,01,18.60
2007,07,22,17,02,18.60
2007,07,22,17,03,18.60
2007,07,22,17,04,18.60
2007,07,22,17,05,18.60
2007,07,22,17,06,18.60
2007,07,22,17,07,18.60
2007,07,22,17,08,18.60
2007,07,22,17,09,18.60
2007,07,22,17,10,18.60
2007,07,22,17,11,18.60
2007,07,22,17,12,18.70
2007,07,22,17,13,18.70
2007,07,22,17,14,18.70
2007,07,22,17,15,18.70
2007,07,22,17,16,18.70
2007,07,22,17,17,18.70
2007,07,22,17,18,18.70
2007,07,22,17,19,18.70
2007,07,22,17,20,18.60
2007,07,22,17,21,18.60
2007,07,22,17,22,18.60
2007,07,22,17,23,18.60
2007,07,22,17,24,18.60
2007,07,22,17,25,18.60
2007,07,22,17,26,18.60
2007,07,22,17,27,18.60
2007,07,22,17,28,18.60
2007,07,22,17,29,18.60
2007,07,22,17,30,18.60
2007,07,22,17,31,18.60
2007,07,22,17,32,18.70
2007,07,22,17,33,18.70
2007,07,22,17,34,18.70
2007,07,22,17,35,18.70
2007,07,22,17,36,18.70
2007,07,22,17,37,18.70
2007,07,22,17,38,18.70
2007,07,22,17,39,18.70
2007,07,22,17,40,18.70
2007,07,22,17,41,18.70
2007,07,22,17,42,18.70
2007,07,22,17,43,18.70
2007,07,22,17,44,18.70
2007,07,22,17,45,18.70
2007,07,22,17,46,18.70
2007,07,22,17,47,18.70
2007,07,22,17,48,18.70
2007,07,22,17,49,18.70
2007,07,22,17,50,18.70
2007,07,22,17,51,18.70
2007,07,22,17,52,18.70
2007,07,22,17,53,18.70
2007,07,22,17,54,18.80
2007,07,22,17,55,18.80
2007,07,22,17,56,18.80
2007,07,22,17,57,18.80
2007,07,22,17,58,18.80
2007,07,22,17,59,18.80
2007,07,22,18,00,18.70
2007,07,22,18,01,18.70
2007,07,22,18,02,18.70
2007,07,22,18,03,18.70
2007,07,22,18,04,18.70
2007,07,22,18,05,18.70
2007,07,22,18,06,18.60
2007,07,22,18,07,18.60
2007,07,22,18,08,18.60
2007,07,22,18,09,18.60
2007,07,22,18,10,18.60
2007,07,22,18,11,18.60
2007,07,22,18,12,18.60
2007,07,22,18,13,18.60
2007,07,22,18,14,18.60
2007,07,22,18,15,18.60
2007,07,22,18,16,18.60
2007,07,22,18,17,18.60
2007,07,22,18,18,18.60
2007,07,22,18,19,18.60
2007,07,22,18,20,18.60
2007,07,22,18,21,18.60
2007,07,22,18,22,18.60
2007,07,22,18,23,18.60
2007,07,22,18,24,18.50
2007,07,22,18,25,18.40
2007,07,22,18,26,18.30
2007,07,22,18,27,18.30
2007,07,22,18,28,18.20
2007,07,22,18,29,18.20
2007,07,22,18,30,18.20
2007,07,22,18,31,18.10
2007,07,22,18,32,18.10
2007,07,22,18,33,18.00
2007,07,22,18,34,18.00
2007,07,22,18,35,18.00
2007,07,22,18,36,18.00
2007,07,22,18,37,18.00
2007,07,22,18,38,18.00
2007,07,22,18,39,18.00
2007,07,22,18,40,18.00
2007,07,22,18,41,17.90
2007,07,22,18,42,17.90
2007,07,22,18,43,17.90
2007,07,22,18,44,17.80
2007,07,22,18,45,17.80
2007,07,22,18,46,17.80
2007,07,22,18,47,17.70
2007,07,22,18,48,17.70
2007,07,22,18,49,17.60
2007,07,22,18,50,17.60
2007,07,22,18,51,17.60
2007,07,22,18,52,17.60
2007,07,22,18,53,17.50
2007,07,22,18,54,17.50
2007,07,22,18,55,17.40
2007,07,22,18,56,17.40
2007,07,22,18,57,17.40
2007,07,22,18,58,17.40
2007,07,22,18,59,17.40
2007,07,22,19,00,17.50
2007,07,22,19,01,17.50
2007,07,22,19,02,17.50
2007,07,22,19,03,17.40
2007,07,22,19,04,17.40
2007,07,22,19,05,17.40
2007,07,22,19,06,17.40
2007,07,22,19,07,17.40
2007,07,22,19,08,17.40
2007,07,22,19,09,17.40
2007,07,22,19,10,17.40
2007,07,22,19,11,17.40
2007,07,22,19,12,17.40
2007,07,22,19,13,17.40
2007,07,22,19,14,17.40
2007,07,22,19,15,17.40
2007,07,22,19,16,17.40
2007,07,22,19,17,17.40
2007,07,22,19,18,17.40
2007,07,22,19,19,17.40
2007,07,22,19,20,17.40
2007,07,22,19,21,17.40
2007,07,22,19,22,17.40
2007,07,22,19,23,17.40
2007,07,22,19,24,17.30
2007,07,22,19,25,17.30
2007,07,22,19,26,17.30
2007,07,22,19,27,17.30
2007,07,22,19,28,17.30
2007,07,22,19,29,17.30
2007,07,22,19,30,17.30
2007,07,22,19,31,17.30
2007,07,22,19,32,17.30
2007,07,22,19,33,17.30
2007,07,22,19,34,17.30
2007,07,22,19,35,17.30
2007,07,22,19,36,17.30
2007,07,22,19,37,17.30
2007,07,22,19,38,17.30
2007,07,22,19,39,17.30
2007,07,22,19,40,17.30
2007,07,22,19,41,17.30
2007,07,22,19,42,17.20
2007,07,22,19,43,17.20
2007,07,22,19,44,17.20
2007,07,22,19,45,17.20
2007,07,22,19,46,17.20
2007,07,22,19,47,17.20
2007,07,22,19,48,17.20
2007,07,22,19,49,17.20
2007,07,22,19,50,17.20
2007,07,22,19,51,17.20
2007,07,22,19,52,17.20
2007,07,22,19,53,17.20
2007,07,22,19,54,17.20
2007,07,22,19,55,17.20
2007,07,22,19,56,17.20
2007,07,22,19,57,17.20
2007,07,22,19,58,17.20
2007,07,22,19,59,17.30
2007,07,22,20,00,17.30
2007,07,22,20,01,17.30
2007,07,22,20,02,17.30
2007,07,22,20,03,17.30
2007,07,22,20,04,17.20
2007,07,22,20,05,17.20
2007,07,22,20,06,17.20
2007,07,22,20,07,17.20
2007,07,22,20,08,17.20
2007,07,22,20,09,17.20
2007,07,22,20,10,17.20
2007,07,22,20,11,17.20
2007,07,22,20,12,17.20
2007,07,22,20,13,17.20
2007,07,22,20,14,17.20
2007,07,22,20,15,17.20
2007,07,22,20,16,17.20
2007,07,22,20,17,17.30
2007,07,22,20,18,17.30
2007,07,22,20,19,17.30
2007,07,22,20,20,17.30
2007,07,22,20,21,17.30
2007,07,22,20,22,17.30
2007,07,22,20,23,17.30
2007,07,22,20,24,17.30
2007,07,22,20,25,17.30
2007,07,22,20,26,17.30
2007,07,22,20,27,17.30
2007,07,22,20,28,17.30
2007,07,22,20,29,17.30
2007,07,22,20,30,17.30
2007,07,22,20,31,17.30
2007,07,22,20,32,17.30
2007,07,22,20,33,17.30
2007,07,22,20,34,17.30
2007,07,22,20,35,17.30
2007,07,22,20,36,17.30
2007,07,22,20,37,17.30
2007,07,22,20,38,17.30
2007,07,22,20,39,17.30
2007,07,22,20,40,17.30
2007,07,22,20,41,17.30
2007,07,22,20,42,17.30
2007,07,22,20,43,17.30
2007,07,22,20,44,17.30
2007,07,22,20,45,17.30
2007,07,22,20,46,17.30
2007,07,22,20,47,17.30
2007,07,22,20,48,17.30
2007,07,22,20,49,17.30
2007,07,22,20,50,17.30
2007,07,22,20,51,17.30
2007,07,22,20,52,17.30
2007,07,22,20,53,17.30
2007,07,22,20,54,17.30
2007,07,22,20,55,17.30
2007,07,22,20,56,17.30
2007,07,22,20,57,17.30
2007,07,22,20,58,17.30
2007,07,22,20,59,17.30
2007,07,22,21,00,17.30
2007,07,22,21,01,17.30
2007,07,22,21,02,17.30
2007,07,22,21,03,17.30
2007,07,22,21,04,17.20
2007,07,22,21,05,17.30
2007,07,22,21,06,17.20
2007,07,22,21,07,17.20
2007,07,22,21,08,17.20
2007,07,22,21,09,17.20
2007,07,22,21,10,17.20
2007,07,22,21,11,17.20
2007,07,22,21,12,17.30
2007,07,22,21,13,17.30
2007,07,22,21,14,17.30
2007,07,22,21,15,17.30
2007,07,22,21,16,17.20
2007,07,22,21,17,17.20
2007,07,22,21,18,17.20
2007,07,22,21,19,17.20
2007,07,22,21,20,17.20
2007,07,22,21,21,17.20
2007,07,22,21,22,17.20
2007,07,22,21,23,17.20
2007,07,22,21,24,17.20
2007,07,22,21,25,17.20
2007,07,22,21,26,17.10
2007,07,22,21,27,17.10
2007,07,22,21,28,17.10
2007,07,22,21,29,17.10
2007,07,22,21,30,17.10
2007,07,22,21,31,17.10
2007,07,22,21,32,17.10
2007,07,22,21,33,17.10
2007,07,22,21,34,17.10
2007,07,22,21,35,17.10
2007,07,22,21,36,17.10
